When you browse on this site, cookies collect data to enhance your experience and personalize the content and advertising you see.
Visit our Privacy Policy to learn more. By continuing to use the site, you agree to this use of cookies and data.
  • In Hungary
  • List of Countries
  • For 7 days
  • Water Temperature
  • Weather Map
  • News
  • Weather Widgets
  • user-avatar
    Login

    Hourly Weather Pelhrimov

    Today, 29 February, Saturday

    Time Temperature Precipitation Wind Pressure Humidity
    00:00 -3°C° 0 mm 2 mps 714 mmHg 86%
    01:00 -4°C° 0 mm 3 mps 714 mmHg 80%
    02:00 -4°C° 0.1 mm 3 mps 713 mmHg 80%
    03:00 -3°C° 0.1 mm 4 mps 712 mmHg 80%
    04:00 -3°C° 0.1 mm 4 mps 711 mmHg 79%
    05:00 -4°C° 0.6 mm 5 mps 711 mmHg 84%
    06:00 -4°C° 0.6 mm 5 mps 710 mmHg 89%
    07:00 -4°C° 0 mm 6 mps 710 mmHg 94%
    08:00 -2°C° 0.3 mm 5 mps 709 mmHg 91%
    09:00 -2°C° 0.3 mm 5 mps 708 mmHg 87%
    10:00 -1°C° 0.3 mm 4 mps 708 mmHg 83%
    11:00 -1°C° 0 mm 4 mps 707 mmHg 81%
    12:00 0°C° 0 mm 4 mps 707 mmHg 79%
    13:00 0°C° 0 mm 4 mps 707 mmHg 77%
    14:00 0°C° 0 mm 5 mps 706 mmHg 78%
    15:00 +1°C° 0 mm 5 mps 705 mmHg 78%
    16:00 +1°C° 0 mm 5 mps 704 mmHg 78%
    17:00 +1°C° 0 mm 5 mps 704 mmHg 77%
    18:00 0°C° 0 mm 5 mps 704 mmHg 76%
    19:00 0°C° 0 mm 5 mps 704 mmHg 75%
    20:00 0°C° 0.1 mm 4 mps 704 mmHg 78%
    21:00 +1°C° 0.1 mm 3 mps 704 mmHg 80%
    22:00 +2°C° 0.1 mm 2 mps 704 mmHg 82%
    23:00 +1°C° 0.2 mm 3 mps 705 mmHg 86%

    Tomorrow, 1 March, Sunday

    Time Temperature Precipitation Wind Pressure Humidity
    00:00 +2°C° 0.2 mm 3 mps 705 mmHg 90%
    01:00 +3°C° 0.2 mm 4 mps 706 mmHg 94%
    02:00 +2°C° 0.4 mm 3 mps 706 mmHg 95%
    03:00 +2°C° 0.4 mm 3 mps 706 mmHg 96%
    04:00 +2°C° 0.4 mm 2 mps 706 mmHg 96%
    05:00 +1°C° 0.2 mm 3 mps 707 mmHg 96%
    06:00 +1°C° 0.2 mm 3 mps 707 mmHg 96%
    07:00 +1°C° 0.2 mm 3 mps 707 mmHg 95%
    08:00 +1°C° 0 mm 4 mps 707 mmHg 93%
    09:00 +3°C° 0 mm 4 mps 707 mmHg 90%
    10:00 +3°C° 0 mm 5 mps 708 mmHg 87%
    11:00 +5°C° 0 mm 5 mps 708 mmHg 83%
    12:00 +5°C° 0 mm 5 mps 708 mmHg 78%
    13:00 +6°C° 0 mm 5 mps 708 mmHg 74%
    14:00 +6°C° 0 mm 4 mps 707 mmHg 76%
    15:00 +5°C° 0 mm 4 mps 707 mmHg 78%
    16:00 +5°C° 0 mm 4 mps 706 mmHg 79%
    17:00 +4°C° 0 mm 4 mps 706 mmHg 84%
    18:00 +3°C° 0 mm 3 mps 706 mmHg 88%
    19:00 +1°C° 0 mm 3 mps 706 mmHg 92%
    20:00 +1°C° 0 mm 3 mps 705 mmHg 93%
    21:00 +1°C° 0 mm 3 mps 705 mmHg 94%
    22:00 0°C° 0 mm 4 mps 704 mmHg 96%
    23:00 0°C° 0 mm 4 mps 704 mmHg 95%

    Day after tomorrow, 2 March, Monday

    Time Temperature Precipitation Wind Pressure Humidity
    00:00 0°C° 0 mm 4 mps 704 mmHg 95%
    01:00 +1°C° 0 mm 4 mps 703 mmHg 95%
    02:00 +2°C° 0 mm 3 mps 703 mmHg 95%
    03:00 +2°C° 0 mm 3 mps 702 mmHg 95%
    04:00 +2°C° 0 mm 3 mps 702 mmHg 95%
    05:00 +1°C° 0 mm 3 mps 702 mmHg 93%
    06:00 +1°C° 0 mm 3 mps 702 mmHg 92%
    07:00 +1°C° 0 mm 3 mps 702 mmHg 90%
    08:00 +1°C° 0 mm 4 mps 702 mmHg 82%
    09:00 +3°C° 0 mm 4 mps 702 mmHg 74%
    10:00 +4°C° 0 mm 4 mps 702 mmHg 67%
    11:00 +5°C° 0 mm 4 mps 702 mmHg 63%
    12:00 +6°C° 0 mm 4 mps 702 mmHg 59%
    13:00 +7°C° 0 mm 4 mps 701 mmHg 56%
    14:00 +7°C° 0 mm 4 mps 701 mmHg 56%
    15:00 +7°C° 0 mm 4 mps 700 mmHg 57%
    16:00 +7°C° 0 mm 4 mps 699 mmHg 57%
    17:00 +6°C° 0 mm 4 mps 699 mmHg 64%
    18:00 +5°C° 0 mm 4 mps 699 mmHg 71%
    19:00 +3°C° 0 mm 5 mps 698 mmHg 79%
    20:00 +4°C° 0 mm 4 mps 698 mmHg 83%
    21:00 +4°C° 0 mm 3 mps 698 mmHg 86%
    22:00 +5°C° 0 mm 2 mps 698 mmHg 90%
    23:00 +4°C° 0.2 mm 2 mps 698 mmHg 91%

    3 March, Tuesday

    Time Temperature Precipitation Wind Pressure Humidity
    00:00 +4°C° 0.2 mm 2 mps 698 mmHg 91%
    01:00 +4°C° 0.2 mm 2 mps 698 mmHg 91%
    02:00 +1°C° 1.8 mm 4 mps 698 mmHg 93%
    03:00 -1°C° 1.8 mm 6 mps 699 mmHg 95%
    04:00 -2°C° 1.8 mm 8 mps 699 mmHg 96%
    05:00 -2°C° 0.5 mm 8 mps 700 mmHg 94%
    06:00 -2°C° 0.5 mm 7 mps 701 mmHg 91%
    07:00 -3°C° 0.5 mm 7 mps 701 mmHg 88%
    08:00 -2°C° 0 mm 6 mps 702 mmHg 83%
    09:00 -1°C° 0 mm 6 mps 703 mmHg 77%
    10:00 -1°C° 0 mm 6 mps 704 mmHg 72%
    11:00 +1°C° 0 mm 6 mps 704 mmHg 69%
    12:00 +2°C° 0 mm 6 mps 704 mmHg 65%
    13:00 +3°C° 0 mm 6 mps 705 mmHg 62%
    14:00 +3°C° 0 mm 5 mps 705 mmHg 62%
    15:00 +3°C° 0 mm 5 mps 705 mmHg 62%
    16:00 +4°C° 0 mm 4 mps 705 mmHg 61%
    17:00 +3°C° 0 mm 3 mps 706 mmHg 68%
    18:00 +2°C° 0 mm 3 mps 706 mmHg 74%
    19:00 +2°C° 0 mm 2 mps 707 mmHg 80%
    20:00 0°C° 0 mm 3 mps 707 mmHg 82%
    21:00 0°C° 0 mm 3 mps 707 mmHg 85%
    22:00 -1°C° 0 mm 4 mps 708 mmHg 88%
    23:00 -1°C° 0 mm 3 mps 708 mmHg 88%

    4 March, Wednesday

    Time Temperature Precipitation Wind Pressure Humidity
    00:00 -1°C° 0 mm 3 mps 708 mmHg 89%
    01:00 -1°C° 0 mm 3 mps 708 mmHg 89%
    02:00 -2°C° 0 mm 3 mps 708 mmHg 90%
    03:00 -2°C° 0 mm 3 mps 708 mmHg 90%
    04:00 -3°C° 0 mm 4 mps 708 mmHg 90%
    05:00 -3°C° 0 mm 4 mps 708 mmHg 91%
    06:00 -3°C° 0 mm 4 mps 708 mmHg 91%
    07:00 -3°C° 0 mm 4 mps 708 mmHg 92%
    08:00 -2°C° 0 mm 4 mps 708 mmHg 86%
    09:00 -1°C° 0 mm 4 mps 708 mmHg 80%
    10:00 0°C° 0 mm 4 mps 708 mmHg 73%
    11:00 +1°C° 0.1 mm 5 mps 708 mmHg 71%
    12:00 +1°C° 0.1 mm 5 mps 708 mmHg 69%
    13:00 +2°C° 0.1 mm 5 mps 708 mmHg 67%
    14:00 +2°C° 0 mm 5 mps 708 mmHg 67%
    15:00 +2°C° 0 mm 5 mps 708 mmHg 67%
    16:00 +1°C° 0 mm 5 mps 707 mmHg 68%
    17:00 0°C° 0 mm 4 mps 707 mmHg 73%
    18:00 -1°C° 0 mm 4 mps 708 mmHg 78%
    19:00 -1°C° 0 mm 3 mps 708 mmHg 84%
    20:00 -1°C° 0 mm 3 mps 708 mmHg 85%
    21:00 -2°C° 0 mm 3 mps 708 mmHg 86%
    22:00 -2°C° 0 mm 3 mps 708 mmHg 87%
    23:00 -2°C° 0 mm 3 mps 708 mmHg 88%

    5 March, Thursday

    Time Temperature Precipitation Wind Pressure Humidity
    00:00 -2°C° 0 mm 3 mps 708 mmHg 89%
    01:00 -2°C° 0 mm 3 mps 708 mmHg 90%
    02:00 -2°C° 0 mm 3 mps 708 mmHg 91%
    03:00 -2°C° 0 mm 3 mps 708 mmHg 92%
    04:00 -2°C° 0 mm 3 mps 708 mmHg 93%
    05:00 -2°C° 0 mm 3 mps 708 mmHg 92%
    06:00 -2°C° 0 mm 3 mps 708 mmHg 92%
    07:00 -2°C° 0 mm 3 mps 708 mmHg 91%
    08:00 -1°C° 0 mm 3 mps 709 mmHg 86%
    09:00 0°C° 0 mm 3 mps 709 mmHg 81%
    10:00 +2°C° 0 mm 3 mps 709 mmHg 76%
    11:00 +2°C° 0 mm 3 mps 709 mmHg 73%
    12:00 +3°C° 0 mm 3 mps 709 mmHg 70%
    13:00 +3°C° 0 mm 3 mps 708 mmHg 68%
    14:00 +4°C° 0 mm 2 mps 708 mmHg 67%
    15:00 +4°C° 0 mm 2 mps 708 mmHg 67%
    16:00 +4°C° 0 mm 2 mps 708 mmHg 66%
    17:00 +4°C° 0 mm 1 mps 707 mmHg 72%
    18:00 +3°C° 0 mm 1 mps 707 mmHg 78%
    19:00 +2°C° 0 mm 1 mps 707 mmHg 84%
    20:00 +2°C° 0 mm 1 mps 707 mmHg 86%
    21:00 +1°C° 0 mm 1 mps 706 mmHg 87%
    22:00 -1°C° 0 mm 2 mps 706 mmHg 88%
    23:00 -1°C° 0 mm 2 mps 706 mmHg 89%
    Show more